TimeCDT,TemperatureF,Dew PointF,Humidity,Sea Level PressureIn,VisibilityMPH,Wind Direction,Wind SpeedMPH,Gust SpeedMPH,PrecipitationIn,Events,Conditions,WindDirDegrees,DateUTC
12:53 AM,54.0,53.1,97,30.02,10.0,Calm,Calm,-,N/A,,Overcast,0,2013-05-08 05:53:00
1:53 AM,54.0,52.0,93,30.01,10.0,Calm,Calm,-,N/A,,Mostly Cloudy,0,2013-05-08 06:53:00
2:53 AM,51.1,50.0,96,30.02,10.0,Calm,Calm,-,N/A,,Clear,0,2013-05-08 07:53:00
3:53 AM,52.0,51.1,97,30.02,10.0,Calm,Calm,-,N/A,,Clear,0,2013-05-08 08:53:00
4:53 AM,55.9,53.1,90,30.01,10.0,WSW,4.6,-,0.01,,Clear,250,2013-05-08 09:53:00
5:53 AM,55.9,53.1,90,30.01,10.0,WSW,5.8,-,N/A,,Clear,250,2013-05-08 10:53:00
6:53 AM,57.9,55.0,90,30.04,10.0,West,4.6,-,N/A,,Clear,270,2013-05-08 11:53:00
7:53 AM,63.0,57.0,81,30.05,10.0,West,5.8,-,N/A,,Clear,270,2013-05-08 12:53:00
8:53 AM,69.1,57.0,65,30.05,10.0,West,6.9,-,N/A,,Clear,260,2013-05-08 13:53:00
9:53 AM,72.0,55.0,55,30.06,10.0,West,6.9,-,N/A,,Clear,260,2013-05-08 14:53:00
10:53 AM,75.0,53.1,46,30.06,10.0,West,5.8,-,N/A,,Clear,270,2013-05-08 15:53:00
11:53 AM,75.9,52.0,43,30.06,10.0,Variable,5.8,-,N/A,,Mostly Cloudy,0,2013-05-08 16:53:00
12:53 PM,75.9,50.0,40,30.04,10.0,South,5.8,-,N/A,,Clear,180,2013-05-08 17:53:00
1:53 PM,73.9,50.0,43,30.04,10.0,SW,10.4,-,N/A,,Mostly Cloudy,220,2013-05-08 18:53:00
2:53 PM,75.0,51.1,43,30.04,10.0,South,5.8,-,N/A,,Mostly Cloudy,190,2013-05-08 19:53:00
3:53 PM,73.9,52.0,46,30.04,10.0,NNW,8.1,-,N/A,,Mostly Cloudy,330,2013-05-08 20:53:00
4:53 PM,70.0,55.0,59,29.98,10.0,East,4.6,-,0.00,,Clear,90,2013-05-08 21:53:00
5:53 PM,72.0,55.0,55,29.99,10.0,Calm,Calm,-,N/A,,Mostly Cloudy,0,2013-05-08 22:53:00
6:53 PM,70.0,59.0,68,29.98,10.0,ENE,3.5,-,0.00,,Overcast,70,2013-05-08 23:53:00
7:53 PM,68.0,57.9,70,29.98,10.0,ENE,3.5,-,0.00,,Mostly Cloudy,70,2013-05-09 00:53:00
8:53 PM,66.0,57.9,75,29.98,10.0,SE,3.5,-,N/A,,Scattered Clouds,130,2013-05-09 01:53:00
9:53 PM,64.9,55.9,73,29.97,10.0,SSE,4.6,-,N/A,,Clear,160,2013-05-09 02:53:00
10:53 PM,66.0,55.9,70,29.97,10.0,SSE,5.8,-,N/A,,Clear,160,2013-05-09 03:53:00
11:53 PM,64.0,55.9,75,29.99,10.0,South,5.8,-,N/A,,Clear,180,2013-05-09 04:53:00